EW8704 Weather Reports


Display with metric or nautical units.
time (UTC)temp
F
wind
direction
speed
MPH
gust
MPH
rain 1hr
in
rain 24hr
in
rain mn
in
humidity
%
barometer
mb
20260503211557 69 279 12.0 19.0 0.00 0.02 0.02 33 1002.7
20260503210048 69 296 11.0 20.0 0.00 0.02 0.02 30 1002.9
20260503204557 70 293 7.0 14.0 0.00 0.02 0.02 33 1002.9
20260503203018 69 275 10.0 18.0 0.00 0.02 0.02 36 1002.9
20260503201507 69 260 6.0 18.0 0.00 0.02 0.02 39 1003.1
20260503200043 69 290 6.0 16.0 0.00 0.02 0.02 37 1003.4
20260503194536 68 313 8.0 18.0 0.00 0.02 0.02 39 1003.5
20260503193004 68 308 12.0 20.0 0.00 0.02 0.02 35 1003.5
20260503191502 69 298 4.0 15.0 0.00 0.02 0.02 40 1003.6
20260503190043 68 355 10.0 16.0 0.00 0.02 0.02 38 1003.7
20260503184524 68 260 9.0 15.0 0.00 0.02 0.02 45 1003.7
20260503183050 67 282 9.0 14.0 0.00 0.02 0.02 42 1003.9
20260503181539 66 232 7.0 16.0 0.00 0.02 0.02 49 1004.1
20260503180108 66 295 9.0 15.0 0.00 0.02 0.02 46 1004.2
20260503180008 66 282 9.0 15.0 0.00 0.02 0.02 46 1004.3
20260503174554 65 277 8.0 15.0 0.00 0.02 0.02 46 1004.3
20260503173019 65 216 9.0 14.0 0.00 0.02 0.02 47 1004.4
20260503171514 64 309 7.0 13.0 0.00 0.02 0.02 46 1004.6
20260503081555 54 136 2.0 6.0 0.00 0.00 0.00 61 1007.3
20260503071540 54 111 0.0 2.0 0.00 0.00 0.00 61 1007.9
20260503054540 55 234 4.0 10.0 0.00 0.00 0.00 57 1009.6
20260503053019 55 250 6.0 9.0 0.00 0.00 0.00 54 1009.6
20260503051504 55 205 5.0 9.0 0.00 0.00 0.00 53 1009.4
20260503050144 54 183 3.0 7.0 0.00 0.00 0.00 54 1009.4
20260503044554 54 205 2.0 6.0 0.00 0.00 0.00 53 1009.5
20260503043023 54 194 3.0 7.0 0.00 0.00 0.00 50 1009.7
20260503041521 55 168 2.0 4.0 0.00 0.00 0.00 49 1009.9
20260503040043 55 177 2.0 5.0 0.00 0.00 0.00 49 1010.0
20260503034545 55 165 2.0 4.0 0.00 0.00 0.00 47 1010.2
20260503033005 55 182 3.0 4.0 0.00 0.00 0.00 46 1010.5
20260503031610 55 177 2.0 5.0 0.00 0.00 0.00 48 1010.7
20260503030035 56 173 3.0 5.0 0.00 0.00 0.00 47 1010.9
20260503024529 55 171 5.0 7.0 0.00 0.00 0.00 48 1011.0
20260503023000 55 193 3.0 5.0 0.00 0.00 0.00 47 1011.1
20260503021603 55 186 3.0 6.0 0.00 0.00 0.00 46 1011.1
20260503020041 56 163 3.0 5.0 0.00 0.00 0.00 47 1011.2
20260503014553 56 178 2.0 5.0 0.00 0.00 0.00 44 1011.2
20260503013024 57 184 3.0 5.0 0.00 0.00 0.00 44 1011.2
20260503011514 57 179 2.0 6.0 0.00 0.00 0.00 45 1011.3
20260503010052 57 173 3.0 5.0 0.00 0.00 0.00 44 1011.5
20260503004551 58 165 2.0 5.0 0.00 0.00 0.00 43 1011.5
20260503003023 58 203 3.0 6.0 0.00 0.00 0.00 42 1011.5
20260503001513 58 210 4.0 6.0 0.00 0.00 0.00 41 1011.8
20260503000058 59 196 3.0 9.0 0.00 0.00 0.00 41 1012.0
20260502234545 59 244 3.0 8.0 0.00 0.00 0.00 42 1012.2
20260502233021 59 219 5.0 13.0 0.00 0.00 0.00 41 1012.3
20260502231521 59 230 5.0 15.0 0.00 0.00 0.00 42 1012.3
20260502230051 59 219 10.0 15.0 0.00 0.00 0.00 40 1012.5
20260502224559 59 219 6.0 13.0 0.00 0.00 0.00 41 1012.7
20260502223029 60 220 9.0 15.0 0.00 0.00 0.00 38 1012.7
20260502221533 60 201 7.0 11.0 0.00 0.00 0.00 39 1012.9
20260502220007 61 224 9.0 15.0 0.00 0.00 0.00 37 1012.9
20260502214505 61 250 7.0 16.0 0.00 0.00 0.00 36 1013.0
20260502213029 61 279 8.0 17.0 0.00 0.00 0.00 39 1013.3